Location: Chmeln�
(49.6483°N, 14.9871°E)
Time: 08:32:45
(UTC+00:00)

CZ-2C R/B - Pass Details

Date: 18 September 2020
Orbit: 785 x 870 km, 98.2° (Epoch: 24 October)

Event Time Altitude Azimuth Distance (km) Brightness Sun altitude
Rises 17:35:29 0° 24° (NNE) 3,413 5.7 -5.6°
Reaches altitude 10° 17:38:24 10° 40° (NE) 2,487 4.9 -6.0°
Maximum altitude 17:42:40 22° 90° (E) 1,778 3.8 -6.7°
Drops below altitude 10° 17:46:57 10° 141° (SE) 2,503 4.7 -7.4°
Sets 17:49:52 0° 156° (SSE) 3,441 5.5 -7.9°
